| time (UTC) | temp F | wind direction | speed knots | gust knots | rain 1hr in | rain 24hr in | rain mn in | humidity % | barometer mb |
| 20260508023506 | 72 | 240 | 0.0 | 0.0 | 0.00 | 1.58 | 1.58 | 96 | 1013.6 |
| 20260508023015 | 72 | 240 | 0.0 | 0.0 | 0.00 | 1.58 | 1.58 | 95 | 1013.5 |
| 20260508022503 | 72 | 240 | 0.0 | 0.0 | 0.00 | 1.58 | 1.58 | 95 | 1013.6 |
| 20260508022004 | 72 | 240 | 0.0 | 0.0 | 0.00 | 1.58 | 1.58 | 95 | 1013.5 |
| 20260508021517 | 72 | 240 | 0.0 | 0.0 | 0.00 | 1.58 | 1.58 | 95 | 1013.4 |
| 20260508021007 | 72 | 240 | 0.0 | 0.0 | 0.00 | 1.58 | 1.58 | 94 | 1013.5 |
| 20260508020506 | 73 | 240 | 0.0 | 0.0 | 0.00 | 1.58 | 1.58 | 94 | 1013.4 |
| 20260508020023 | 73 | 240 | 0.0 | 0.0 | 0.00 | 1.58 | 1.58 | 94 | 1013.4 |
| 20260508015507 | 73 | 240 | 0.0 | 0.0 | 0.00 | 1.58 | 1.58 | 94 | 1013.4 |
| 20260508015010 | 73 | 240 | 0.0 | 0.0 | 0.00 | 1.58 | 1.58 | 94 | 1013.3 |
| 20260508014527 | 73 | 240 | 0.0 | 0.0 | 0.00 | 1.58 | 1.58 | 94 | 1013.4 |
| 20260508014008 | 73 | 240 | 0.0 | 0.0 | 0.00 | 1.58 | 1.58 | 94 | 1013.2 |
| 20260508013508 | 73 | 240 | 0.0 | 0.0 | 0.00 | 1.58 | 1.58 | 93 | 1013.2 |
| 20260508013028 | 73 | 240 | 0.0 | 0.0 | 0.00 | 1.58 | 1.58 | 93 | 1013.1 |
| 20260508012503 | 73 | 240 | 0.0 | 0.0 | 0.00 | 1.58 | 1.58 | 93 | 1012.9 |
| 20260508012003 | 74 | 240 | 0.0 | 0.0 | 0.00 | 1.58 | 1.58 | 93 | 1012.9 |
| 20260508011522 | 74 | 240 | 0.0 | 0.0 | 0.00 | 1.58 | 1.58 | 92 | 1012.9 |
| 20260508011010 | 74 | 240 | 0.0 | 0.0 | 0.00 | 1.58 | 1.58 | 92 | 1012.9 |
| 20260508010506 | 74 | 240 | 0.0 | 0.0 | 0.00 | 1.58 | 1.58 | 92 | 1012.9 |
| 20260508010022 | 74 | 240 | 0.0 | 0.0 | 0.00 | 1.58 | 1.58 | 92 | 1012.8 |
| 20260508005506 | 74 | 240 | 0.0 | 0.0 | 0.00 | 1.58 | 1.58 | 92 | 1012.8 |
| 20260508005007 | 74 | 240 | 0.0 | 0.0 | 0.00 | 1.58 | 1.58 | 92 | 1012.9 |
| 20260508004527 | 74 | 207 | 0.0 | 0.0 | 0.00 | 1.58 | 1.58 | 92 | 1012.8 |
| 20260508004009 | 74 | 206 | 0.0 | 0.0 | 0.00 | 1.58 | 1.58 | 92 | 1012.7 |
| 20260508003511 | 74 | 248 | 0.0 | 0.0 | 0.00 | 1.58 | 1.58 | 91 | 1012.8 |
| 20260508003027 | 75 | 248 | 0.0 | 0.0 | 0.00 | 1.58 | 1.58 | 91 | 1012.9 |
| 20260508002510 | 75 | 248 | 0.0 | 0.0 | 0.00 | 1.58 | 1.58 | 91 | 1012.9 |
| 20260508002011 | 75 | 248 | 0.0 | 0.9 | 0.00 | 1.58 | 1.58 | 91 | 1012.8 |
| 20260508001514 | 75 | 178 | 0.0 | 1.7 | 0.00 | 1.58 | 1.58 | 91 | 1012.7 |
| 20260508001003 | 75 | 261 | 0.0 | 1.7 | 0.00 | 1.58 | 1.58 | 90 | 1012.7 |
| 20260508000505 | 75 | 350 | 0.0 | 1.7 | 0.00 | 1.58 | 1.58 | 90 | 1012.8 |
| 20260508000021 | 75 | 265 | 0.0 | 1.7 | 0.00 | 1.58 | 1.58 | 90 | 1012.7 |
| 20260507235507 | 75 | 264 | 0.0 | 1.7 | 0.00 | 1.58 | 1.58 | 90 | 1012.6 |
| 20260507235007 | 75 | 263 | 0.0 | 1.7 | 0.00 | 1.58 | 1.58 | 90 | 1012.5 |
| 20260507234523 | 75 | 208 | 0.0 | 3.5 | 0.00 | 1.58 | 1.58 | 89 | 1012.5 |
| 20260507234008 | 75 | 252 | 0.0 | 3.5 | 0.00 | 1.58 | 1.58 | 89 | 1012.6 |
| 20260507233516 | 75 | 240 | 0.9 | 3.5 | 0.00 | 1.58 | 1.58 | 89 | 1012.7 |
| 20260507233032 | 76 | 282 | 0.9 | 3.5 | 0.00 | 1.58 | 1.58 | 89 | 1012.8 |
| 20260507232509 | 76 | 279 | 1.7 | 2.6 | 0.00 | 1.58 | 1.58 | 89 | 1012.8 |
| 20260507232009 | 76 | 292 | 0.0 | 3.5 | 0.00 | 1.58 | 1.58 | 89 | 1012.8 |
| 20260507231538 | 76 | 298 | 1.7 | 3.5 | 0.00 | 1.58 | 1.58 | 89 | 1012.9 |
| 20260507231011 | 76 | 288 | 0.9 | 3.5 | 0.00 | 1.58 | 1.58 | 88 | 1012.8 |
| 20260507230509 | 76 | 286 | 0.9 | 3.5 | 0.00 | 1.58 | 1.58 | 88 | 1012.8 |
| 20260507230019 | 76 | 293 | 0.9 | 2.6 | 0.00 | 1.58 | 1.58 | 88 | 1012.7 |
| 20260507225507 | 76 | 248 | 0.9 | 2.6 | 0.00 | 1.58 | 1.58 | 88 | 1012.7 |
| 20260507225007 | 76 | 264 | 0.9 | 2.6 | 0.00 | 1.58 | 1.58 | 88 | 1012.7 |
| 20260507224522 | 76 | 279 | 0.0 | 3.5 | 0.00 | 1.58 | 1.58 | 88 | 1012.8 |
| 20260507224007 | 76 | 258 | 0.9 | 5.2 | 0.00 | 1.58 | 1.58 | 87 | 1012.8 |
| 20260507223507 | 76 | 310 | 0.9 | 5.2 | 0.00 | 1.58 | 1.58 | 87 | 1012.8 |
| 20260507223026 | 77 | 255 | 1.7 | 5.2 | 0.00 | 1.58 | 1.58 | 87 | 1012.8 |
| 20260507222510 | 77 | 294 | 0.9 | 6.1 | 0.00 | 1.58 | 1.58 | 87 | 1012.8 |
| 20260507222009 | 77 | 312 | 0.0 | 6.1 | 0.00 | 1.58 | 1.58 | 88 | 1012.9 |
| 20260507221530 | 76 | 216 | 1.7 | 7.0 | 0.00 | 1.58 | 1.58 | 88 | 1012.8 |
| 20260507221013 | 76 | 252 | 1.7 | 7.8 | 0.00 | 1.58 | 1.58 | 87 | 1012.8 |
| 20260507220509 | 76 | 266 | 1.7 | 7.8 | 0.00 | 1.58 | 1.58 | 88 | 1012.7 |
| 20260507220029 | 76 | 309 | 3.5 | 7.8 | 0.00 | 1.58 | 1.58 | 87 | 1012.7 |
| 20260507215507 | 77 | 285 | 0.9 | 6.1 | 0.00 | 1.58 | 1.58 | 88 | 1012.7 |
| 20260507215008 | 77 | 331 | 0.9 | 3.5 | 0.00 | 1.58 | 1.58 | 89 | 1012.8 |
| 20260507214521 | 76 | 245 | 0.0 | 7.0 | 0.00 | 1.58 | 1.58 | 92 | 1012.9 |
| 20260507214004 | 76 | 268 | 1.7 | 7.8 | 0.00 | 1.58 | 1.58 | 91 | 1012.9 |
| 20260507213503 | 76 | 311 | 3.5 | 7.8 | 0.00 | 1.58 | 1.58 | 90 | 1012.8 |
| 20260507213004 | 76 | 286 | 2.6 | 7.0 | 0.00 | 1.58 | 1.58 | 91 | 1012.9 |
| 20260507212504 | 76 | 275 | 3.5 | 7.0 | 0.00 | 1.58 | 1.58 | 91 | 1012.8 |
| 20260507212004 | 76 | 277 | 0.9 | 3.5 | 0.00 | 1.58 | 1.58 | 92 | 1012.7 |
| 20260507211511 | 76 | 283 | 0.9 | 2.6 | 0.00 | 1.58 | 1.58 | 92 | 1012.8 |
| 20260507211006 | 76 | 302 | 0.9 | 3.5 | 0.00 | 1.58 | 1.58 | 91 | 1012.7 |
| 20260507210506 | 76 | 276 | 0.9 | 12.2 | 0.00 | 1.58 | 1.58 | 91 | 1012.8 |
| 20260507210013 | 76 | 272 | 3.5 | 12.2 | 0.00 | 1.58 | 1.58 | 90 | 1012.6 |
| 20260507205503 | 76 | 229 | 2.6 | 6.1 | 0.00 | 1.58 | 1.58 | 91 | 1012.7 |
| 20260507205006 | 76 | 269 | 1.7 | 6.1 | 0.00 | 1.58 | 1.58 | 92 | 1012.7 |
| 20260507204519 | 76 | 224 | 0.9 | 3.5 | 0.00 | 1.58 | 1.58 | 93 | 1012.7 |
| 20260507204007 | 76 | 314 | 0.0 | 3.5 | 0.00 | 1.58 | 1.58 | 94 | 1012.5 |
| 20260507203505 | 75 | 64 | 0.0 | 3.5 | 0.00 | 1.58 | 1.58 | 94 | 1012.6 |
| 20260507203002 | 75 | 236 | 0.0 | 0.0 | 0.00 | 1.58 | 1.58 | 94 | 1012.9 |
| 20260507202502 | 75 | 223 | 0.0 | 0.0 | 0.00 | 1.58 | 1.58 | 94 | 1012.8 |
| 20260507202002 | 75 | 223 | 0.0 | 0.0 | 0.00 | 1.58 | 1.58 | 94 | 1012.9 |
| 20260507201507 | 75 | 223 | 0.0 | 0.0 | 0.00 | 1.58 | 1.58 | 94 | 1012.9 |
| 20260507201002 | 75 | 173 | 0.0 | 0.0 | 0.00 | 1.58 | 1.58 | 94 | 1012.7 |
| 20260507200503 | 74 | 238 | 0.0 | 0.0 | 0.00 | 1.58 | 1.58 | 94 | 1012.7 |
| 20260507200012 | 74 | 182 | 0.0 | 0.0 | 0.00 | 1.58 | 1.58 | 94 | 1013.0 |
| 20260507195504 | 74 | 341 | 0.0 | 0.0 | 0.00 | 1.58 | 1.58 | 94 | 1013.0 |
| 20260507195006 | 74 | 341 | 0.0 | 0.0 | 0.00 | 1.58 | 1.58 | 94 | 1013.0 |
| 20260507194518 | 74 | 341 | 0.0 | 0.0 | 0.00 | 1.58 | 1.58 | 94 | 1013.3 |
| 20260507194006 | 74 | 341 | 0.0 | 3.5 | 0.01 | 1.58 | 1.58 | 94 | 1013.3 |
| 20260507193506 | 74 | 314 | 0.9 | 3.5 | 0.01 | 1.58 | 1.58 | 94 | 1013.4 |
| 20260507193024 | 74 | 344 | 1.7 | 3.5 | 0.01 | 1.58 | 1.58 | 94 | 1013.5 |
| 20260507192502 | 74 | 331 | 0.0 | 1.7 | 0.01 | 1.58 | 1.58 | 93 | 1013.4 |
| 20260507192007 | 74 | 326 | 0.0 | 1.7 | 0.01 | 1.58 | 1.58 | 94 | 1013.1 |
| 20260507191506 | 74 | 314 | 0.9 | 2.6 | 0.01 | 1.58 | 1.58 | 94 | 1013.2 |
| 20260507191001 | 73 | 243 | 0.0 | 2.6 | 0.01 | 1.58 | 1.58 | 94 | 1013.1 |
| 20260507190505 | 73 | 277 | 0.0 | 1.7 | 0.01 | 1.58 | 1.58 | 94 | 1013.3 |
| 20260507190012 | 73 | 332 | 0.0 | 1.7 | 0.01 | 1.58 | 1.58 | 94 | 1013.2 |
| 20260507185502 | 73 | 332 | 0.9 | 2.6 | 0.01 | 1.58 | 1.58 | 94 | 1013.3 |
| 20260507185010 | 73 | 260 | 0.0 | 2.6 | 0.01 | 1.58 | 1.58 | 94 | 1013.4 |
| 20260507184515 | 73 | 300 | 0.0 | 2.6 | 0.01 | 1.58 | 1.58 | 93 | 1013.7 |
| 20260507184003 | 73 | 282 | 0.0 | 1.7 | 0.00 | 1.57 | 1.57 | 94 | 1013.5 |
| 20260507183508 | 73 | 261 | 0.9 | 3.5 | 0.00 | 1.57 | 1.57 | 94 | 1013.8 |
| 20260507183034 | 73 | 243 | 0.9 | 3.5 | 0.00 | 1.57 | 1.57 | 94 | 1013.9 |
| 20260507182507 | 73 | 184 | 0.0 | 2.6 | 0.00 | 1.57 | 1.57 | 94 | 1014.0 |
| 20260507182008 | 73 | 290 | 0.0 | 1.7 | 0.00 | 1.57 | 1.57 | 94 | 1014.2 |
| 20260507181505 | 73 | 291 | 0.0 | 4.3 | 0.00 | 1.57 | 1.57 | 95 | 1014.0 |
| 20260507181004 | 72 | 257 | 0.0 | 4.3 | 0.00 | 1.57 | 1.57 | 94 | 1014.3 |
| 20260507180503 | 72 | 173 | 0.9 | 4.3 | 0.00 | 1.57 | 1.57 | 95 | 1014.3 |
| 20260507180008 | 72 | 236 | 1.7 | 6.1 | 0.00 | 1.57 | 1.57 | 96 | 1014.5 |
| 20260507175505 | 72 | 191 | 0.9 | 7.0 | 0.00 | 1.57 | 1.57 | 95 | 1014.2 |
| 20260507175003 | 71 | 155 | 4.3 | 7.0 | 0.01 | 1.57 | 1.57 | 95 | 1014.0 |
| 20260507174516 | 71 | 184 | 1.7 | 3.5 | 0.02 | 1.57 | 1.57 | 96 | 1014.4 |
| 20260507174006 | 71 | 173 | 1.7 | 6.1 | 0.04 | 1.57 | 1.57 | 95 | 1014.4 |
| 20260507173513 | 70 | 198 | 1.7 | 6.1 | 0.07 | 1.57 | 1.57 | 96 | 1014.4 |
| 20260507173017 | 70 | 169 | 1.7 | 6.1 | 0.08 | 1.57 | 1.57 | 96 | 1014.5 |
| 20260507172507 | 70 | 231 | 1.7 | 4.3 | 0.08 | 1.57 | 1.57 | 96 | 1014.6 |
| 20260507172007 | 70 | 201 | 2.6 | 4.3 | 0.10 | 1.57 | 1.57 | 95 | 1014.3 |
| 20260507171525 | 70 | 202 | 1.7 | 4.3 | 0.24 | 1.57 | 1.57 | 97 | 1014.7 |
| 20260507171008 | 70 | 199 | 0.9 | 3.5 | 0.36 | 1.57 | 1.57 | 97 | 1014.6 |
| 20260507170502 | 69 | 198 | 0.9 | 7.0 | 0.48 | 1.57 | 1.57 | 96 | 1014.7 |
| 20260507170010 | 68 | 230 | 3.5 | 6.1 | 0.52 | 1.57 | 1.57 | 95 | 1014.7 |
| 20260507165502 | 68 | 197 | 0.9 | 2.6 | 0.54 | 1.57 | 1.57 | 95 | 1014.5 |
| 20260507165003 | 68 | 219 | 0.9 | 5.2 | 0.54 | 1.56 | 1.56 | 95 | 1014.2 |
| 20260507164514 | 68 | 245 | 0.0 | 7.8 | 1.01 | 1.55 | 1.55 | 95 | 1014.6 |
| 20260507164003 | 68 | 301 | 3.5 | 7.8 | 1.53 | 1.53 | 1.53 | 94 | 1014.7 |
| 20260507163502 | 68 | 96 | 0.0 | 6.1 | 1.50 | 1.50 | 1.50 | 94 | 1015.5 |
| 20260507163018 | 68 | 213 | 0.9 | 14.8 | 1.49 | 1.49 | 1.49 | 94 | 1015.7 |
| 20260507162507 | 69 | 227 | 5.2 | 19.1 | 1.49 | 1.49 | 1.49 | 93 | 1015.4 |
| 20260507162007 | 70 | 194 | 11.3 | 19.1 | 1.47 | 1.47 | 1.47 | 94 | 1015.0 |
| 20260507161538 | 70 | 219 | 1.7 | 7.0 | 1.33 | 1.33 | 1.33 | 94 | 1015.5 |
| 20260507161008 | 71 | 182 | 1.7 | 7.0 | 1.21 | 1.21 | 1.21 | 94 | 1015.8 |
| 20260507160510 | 71 | 180 | 0.0 | 5.2 | 1.09 | 1.09 | 1.09 | 94 | 1015.4 |
| 20260507160034 | 71 | 210 | 0.0 | 10.4 | 1.04 | 1.04 | 1.04 | 93 | 1014.9 |
| 20260507155503 | 71 | 217 | 2.6 | 16.5 | 1.03 | 1.03 | 1.03 | 93 | 1014.9 |
| 20260507155007 | 72 | 162 | 7.0 | 20.0 | 1.02 | 1.02 | 1.02 | 92 | 1014.6 |
| 20260507154004 | 74 | 302 | 3.5 | 6.1 | 0.00 | 0.00 | 0.00 | 91 | 1016.0 |
| 20260507153504 | 74 | 5 | 0.9 | 2.6 | 0.00 | 0.00 | 0.00 | 90 | 1014.9 |
| 20260507153015 | 74 | 40 | 1.7 | 3.5 | 0.00 | 0.00 | 0.00 | 90 | 1014.4 |
| 20260507152507 | 74 | 85 | 1.7 | 3.5 | 0.00 | 0.00 | 0.00 | 90 | 1014.1 |
| 20260507152008 | 74 | 94 | 0.9 | 2.6 | 0.00 | 0.00 | 0.00 | 89 | 1014.1 |
| 20260507151534 | 74 | 165 | 0.0 | 3.5 | 0.00 | 0.00 | 0.00 | 89 | 1014.4 |
| 20260507151006 | 74 | 80 | 1.7 | 3.5 | 0.00 | 0.00 | 0.00 | 88 | 1014.1 |
| 20260507150507 | 74 | 88 | 1.7 | 3.5 | 0.00 | 0.00 | 0.00 | 88 | 1013.9 |
| 20260507150024 | 74 | 41 | 1.7 | 4.3 | 0.00 | 0.00 | 0.00 | 87 | 1014.2 |
| 20260507145507 | 74 | 38 | 1.7 | 8.7 | 0.00 | 0.00 | 0.00 | 86 | 1014.4 |
| 20260507145010 | 75 | 69 | 2.6 | 8.7 | 0.00 | 0.00 | 0.00 | 84 | 1014.5 |
| 20260507144510 | 76 | 310 | 4.3 | 8.7 | 0.00 | 0.00 | 0.00 | 86 | 1014.6 |
| 20260507144008 | 76 | 317 | 2.6 | 6.1 | 0.00 | 0.00 | 0.00 | 88 | 1014.6 |
| 20260507143505 | 76 | 72 | 1.7 | 5.2 | 0.00 | 0.00 | 0.00 | 88 | 1014.5 |
| 20260507143015 | 76 | 222 | 0.9 | 4.3 | 0.00 | 0.00 | 0.00 | 88 | 1014.3 |
| 20260507142504 | 77 | 138 | 0.9 | 3.5 | 0.00 | 0.00 | 0.00 | 88 | 1014.2 |
| 20260507142008 | 77 | 252 | 0.9 | 3.5 | 0.00 | 0.00 | 0.00 | 88 | 1014.2 |
| 20260507141521 | 77 | 184 | 0.0 | 4.3 | 0.00 | 0.00 | 0.00 | 88 | 1014.3 |
| 20260507141012 | 77 | 104 | 0.9 | 5.2 | 0.00 | 0.00 | 0.00 | 88 | 1014.1 |
| 20260507140509 | 77 | 179 | 2.6 | 5.2 | 0.00 | 0.00 | 0.00 | 88 | 1013.9 |
| 20260507140026 | 77 | 188 | 2.6 | 6.1 | 0.00 | 0.00 | 0.00 | 88 | 1014.0 |
| 20260507135508 | 77 | 159 | 0.9 | 6.1 | 0.00 | 0.00 | 0.00 | 88 | 1014.2 |
| 20260507135009 | 77 | 196 | 0.9 | 4.3 | 0.00 | 0.00 | 0.00 | 88 | 1014.4 |
| 20260507134536 | 77 | 30 | 0.9 | 4.3 | 0.00 | 0.00 | 0.00 | 88 | 1014.5 |
| 20260507134003 | 77 | 234 | 1.7 | 3.5 | 0.00 | 0.00 | 0.00 | 88 | 1014.4 |
| 20260507133505 | 77 | 234 | 0.9 | 3.5 | 0.00 | 0.00 | 0.00 | 89 | 1014.2 |
| 20260507133014 | 76 | 212 | 1.7 | 6.1 | 0.00 | 0.00 | 0.00 | 89 | 1014.4 |
| 20260507132507 | 76 | 240 | 1.7 | 6.1 | 0.00 | 0.00 | 0.00 | 89 | 1014.3 |
| 20260507132010 | 76 | 289 | 0.9 | 2.6 | 0.00 | 0.00 | 0.00 | 90 | 1014.1 |
| 20260507131525 | 76 | 336 | 0.0 | 5.2 | 0.00 | 0.00 | 0.00 | 90 | 1014.3 |
| 20260507131005 | 76 | 227 | 0.9 | 5.2 | 0.00 | 0.00 | 0.00 | 90 | 1014.3 |
| 20260507130508 | 76 | 263 | 0.9 | 6.1 | 0.00 | 0.00 | 0.00 | 90 | 1014.4 |
| 20260507130029 | 75 | 215 | 2.6 | 8.7 | 0.00 | 0.00 | 0.00 | 90 | 1014.2 |
| 20260507125509 | 75 | 185 | 1.7 | 8.7 | 0.00 | 0.00 | 0.00 | 90 | 1014.2 |
| 20260507125007 | 75 | 180 | 3.5 | 8.7 | 0.00 | 0.00 | 0.00 | 90 | 1014.1 |
| 20260507124525 | 75 | 188 | 2.6 | 7.0 | 0.00 | 0.00 | 0.00 | 90 | 1014.1 |
| 20260507124010 | 75 | 265 | 2.6 | 7.0 | 0.00 | 0.00 | 0.00 | 90 | 1014.2 |
| 20260507123510 | 75 | 174 | 2.6 | 6.1 | 0.00 | 0.00 | 0.00 | 90 | 1014.0 |
| 20260507123019 | 75 | 162 | 0.9 | 7.8 | 0.00 | 0.00 | 0.00 | 90 | 1014.0 |
| 20260507122504 | 75 | 189 | 1.7 | 7.8 | 0.00 | 0.00 | 0.00 | 90 | 1014.0 |
| 20260507122012 | 75 | 193 | 1.7 | 7.0 | 0.00 | 0.00 | 0.00 | 90 | 1013.8 |
| 20260507121516 | 75 | 178 | 4.3 | 7.0 | 0.00 | 0.00 | 0.00 | 90 | 1013.8 |
| 20260507121004 | 75 | 194 | 1.7 | 7.8 | 0.00 | 0.00 | 0.00 | 90 | 1013.8 |
| 20260507120509 | 75 | 169 | 1.7 | 8.7 | 0.00 | 0.00 | 0.00 | 90 | 1013.9 |
| 20260507120020 | 75 | 177 | 3.5 | 8.7 | 0.00 | 0.00 | 0.00 | 90 | 1013.8 |
| 20260507115505 | 75 | 198 | 3.5 | 6.1 | 0.00 | 0.00 | 0.00 | 90 | 1013.6 |
| 20260507115007 | 75 | 222 | 2.6 | 9.6 | 0.00 | 0.00 | 0.00 | 90 | 1013.7 |
| 20260507114529 | 75 | 203 | 2.6 | 9.6 | 0.00 | 0.00 | 0.00 | 90 | 1013.6 |
| 20260507114007 | 75 | 239 | 1.7 | 7.8 | 0.00 | 0.00 | 0.00 | 90 | 1013.5 |
| 20260507113504 | 75 | 161 | 1.7 | 7.8 | 0.00 | 0.00 | 0.00 | 90 | 1013.3 |
| 20260507113007 | 75 | 173 | 4.3 | 11.3 | 0.00 | 0.00 | 0.00 | 90 | 1012.9 |
| 20260507112504 | 75 | 202 | 2.6 | 11.3 | 0.00 | 0.00 | 0.00 | 90 | 1012.9 |
| 20260507112004 | 75 | 182 | 2.6 | 12.2 | 0.00 | 0.00 | 0.00 | 90 | 1013.0 |
| 20260507111521 | 75 | 194 | 4.3 | 11.3 | 0.00 | 0.00 | 0.00 | 90 | 1012.9 |
| 20260507111003 | 74 | 180 | 5.2 | 10.4 | 0.00 | 0.00 | 0.00 | 90 | 1012.7 |
| 20260507110506 | 74 | 201 | 2.6 | 8.7 | 0.00 | 0.00 | 0.00 | 90 | 1012.4 |
| 20260507110022 | 74 | 178 | 3.5 | 11.3 | 0.00 | 0.00 | 0.00 | 90 | 1012.4 |
| 20260507105508 | 75 | 222 | 4.3 | 11.3 | 0.00 | 0.00 | 0.00 | 90 | 1012.3 |
| 20260507105005 | 75 | 223 | 3.5 | 10.4 | 0.00 | 0.00 | 0.00 | 90 | 1012.4 |
| 20260507104526 | 75 | 181 | 5.2 | 10.4 | 0.00 | 0.00 | 0.00 | 90 | 1012.3 |
| 20260507104004 | 75 | 197 | 3.5 | 9.6 | 0.00 | 0.00 | 0.00 | 90 | 1012.2 |
| 20260507103504 | 75 | 187 | 4.3 | 9.6 | 0.00 | 0.00 | 0.00 | 90 | 1012.5 |
| 20260507103009 | 75 | 169 | 2.6 | 8.7 | 0.00 | 0.00 | 0.00 | 90 | 1012.4 |
| 20260507102504 | 75 | 188 | 1.7 | 8.7 | 0.00 | 0.00 | 0.00 | 90 | 1012.5 |
| 20260507102004 | 75 | 197 | 0.9 | 8.7 | 0.00 | 0.00 | 0.00 | 90 | 1012.3 |
| 20260507101520 | 75 | 163 | 1.7 | 6.1 | 0.00 | 0.00 | 0.00 | 90 | 1012.3 |
| 20260507101004 | 75 | 208 | 0.9 | 6.1 | 0.00 | 0.00 | 0.00 | 90 | 1012.4 |
| 20260507100504 | 75 | 188 | 1.7 | 6.1 | 0.00 | 0.00 | 0.00 | 90 | 1012.4 |
| 20260507100021 | 75 | 246 | 2.6 | 8.7 | 0.00 | 0.00 | 0.00 | 90 | 1012.4 |
| 20260507095507 | 75 | 184 | 2.6 | 8.7 | 0.00 | 0.00 | 0.00 | 90 | 1012.3 |
| 20260507095007 | 75 | 184 | 0.9 | 4.3 | 0.00 | 0.00 | 0.00 | 90 | 1012.0 |
| 20260507094525 | 75 | 220 | 2.6 | 7.0 | 0.00 | 0.00 | 0.00 | 90 | 1011.9 |
| 20260507094006 | 75 | 197 | 1.7 | 7.0 | 0.00 | 0.00 | 0.00 | 90 | 1011.8 |
| 20260507093508 | 75 | 180 | 1.7 | 8.7 | 0.00 | 0.00 | 0.00 | 90 | 1011.8 |
| 20260507093008 | 75 | 187 | 1.7 | 8.7 | 0.00 | 0.00 | 0.00 | 90 | 1011.7 |
| 20260507092503 | 74 | 223 | 2.6 | 6.1 | 0.00 | 0.00 | 0.00 | 90 | 1011.8 |
| 20260507092003 | 74 | 199 | 1.7 | 5.2 | 0.00 | 0.00 | 0.00 | 90 | 1011.9 |
| 20260507091514 | 74 | 211 | 1.7 | 5.2 | 0.00 | 0.00 | 0.00 | 90 | 1011.9 |
| 20260507091003 | 74 | 246 | 1.7 | 6.1 | 0.00 | 0.00 | 0.00 | 90 | 1011.9 |
| 20260507090504 | 74 | 204 | 2.6 | 7.0 | 0.00 | 0.00 | 0.00 | 90 | 1012.0 |
| 20260507090020 | 74 | 217 | 0.9 | 7.0 | 0.00 | 0.00 | 0.00 | 90 | 1012.1 |
| 20260507085506 | 74 | 247 | 0.9 | 4.3 | 0.00 | 0.00 | 0.00 | 90 | 1012.3 |
| 20260507085007 | 74 | 192 | 1.7 | 6.1 | 0.00 | 0.00 | 0.00 | 90 | 1012.3 |
| 20260507084532 | 74 | 237 | 0.0 | 6.1 | 0.00 | 0.00 | 0.00 | 90 | 1012.3 |
| 20260507084009 | 74 | 233 | 1.7 | 5.2 | 0.00 | 0.00 | 0.00 | 91 | 1012.3 |
| 20260507083508 | 74 | 284 | 0.9 | 9.6 | 0.00 | 0.00 | 0.00 | 91 | 1012.3 |
| 20260507083031 | 74 | 254 | 1.7 | 10.4 | 0.00 | 0.00 | 0.00 | 91 | 1012.3 |
| 20260507082507 | 74 | 165 | 1.7 | 10.4 | 0.00 | 0.00 | 0.00 | 91 | 1012.2 |
| 20260507082004 | 74 | 231 | 2.6 | 7.0 | 0.00 | 0.00 | 0.00 | 91 | 1012.3 |
| 20260507081515 | 74 | 257 | 1.7 | 7.0 | 0.00 | 0.00 | 0.00 | 91 | 1012.4 |
| 20260507081004 | 74 | 217 | 1.7 | 8.7 | 0.00 | 0.00 | 0.00 | 91 | 1012.4 |
| 20260507080506 | 74 | 188 | 3.5 | 8.7 | 0.00 | 0.00 | 0.00 | 91 | 1012.5 |
| 20260507080015 | 74 | 175 | 2.6 | 6.1 | 0.00 | 0.00 | 0.00 | 91 | 1012.4 |
| 20260507075503 | 74 | 173 | 1.7 | 7.0 | 0.00 | 0.00 | 0.00 | 91 | 1012.5 |
| 20260507075006 | 74 | 186 | 2.6 | 7.8 | 0.00 | 0.00 | 0.00 | 91 | 1012.4 |
| 20260507074537 | 74 | 173 | 3.5 | 7.8 | 0.00 | 0.00 | 0.00 | 91 | 1012.5 |
| 20260507074006 | 74 | 198 | 2.6 | 9.6 | 0.00 | 0.00 | 0.00 | 91 | 1012.4 |
| 20260507073507 | 74 | 221 | 3.5 | 9.6 | 0.00 | 0.00 | 0.00 | 91 | 1012.5 |
| 20260507073024 | 74 | 174 | 2.6 | 8.7 | 0.00 | 0.00 | 0.00 | 91 | 1012.6 |
| 20260507072509 | 74 | 204 | 4.3 | 7.8 | 0.00 | 0.00 | 0.00 | 91 | 1012.7 |
| 20260507072011 | 74 | 200 | 0.9 | 7.0 | 0.00 | 0.00 | 0.00 | 91 | 1012.9 |
| 20260507071525 | 74 | 286 | 0.9 | 6.1 | 0.00 | 0.00 | 0.00 | 91 | 1012.9 |
| 20260507071004 | 73 | 319 | 0.9 | 6.1 | 0.00 | 0.00 | 0.00 | 91 | 1013.1 |
| 20260507070504 | 73 | 139 | 1.7 | 5.2 | 0.00 | 0.00 | 0.00 | 91 | 1013.1 |
| 20260507070016 | 73 | 175 | 1.7 | 5.2 | 0.00 | 0.00 | 0.00 | 91 | 1013.1 |
| 20260507065503 | 73 | 190 | 1.7 | 6.1 | 0.00 | 0.00 | 0.00 | 91 | 1013.0 |
| 20260507065004 | 73 | 190 | 2.6 | 9.6 | 0.00 | 0.00 | 0.00 | 91 | 1012.9 |
| 20260507064521 | 73 | 191 | 4.3 | 8.7 | 0.00 | 0.00 | 0.00 | 92 | 1012.8 |
| 20260507064007 | 73 | 209 | 1.7 | 7.8 | 0.00 | 0.00 | 0.00 | 92 | 1012.6 |
| 20260507063508 | 73 | 169 | 4.3 | 10.4 | 0.00 | 0.00 | 0.00 | 92 | 1012.6 |
| 20260507063028 | 73 | 150 | 4.3 | 10.4 | 0.00 | 0.00 | 0.00 | 92 | 1012.7 |
| 20260507062509 | 73 | 207 | 6.1 | 9.6 | 0.00 | 0.00 | 0.00 | 92 | 1012.9 |
| 20260507062011 | 73 | 159 | 5.2 | 9.6 | 0.00 | 0.00 | 0.00 | 92 | 1013.1 |
| 20260507061526 | 73 | 204 | 2.6 | 10.4 | 0.00 | 0.00 | 0.00 | 92 | 1013.1 |
| 20260507061009 | 73 | 171 | 5.2 | 17.4 | 0.00 | 0.00 | 0.00 | 92 | 1013.1 |
| 20260507060509 | 73 | 148 | 7.0 | 17.4 | 0.00 | 0.00 | 0.00 | 92 | 1012.9 |
| 20260507060015 | 73 | 158 | 6.1 | 16.5 | 0.00 | 0.00 | 0.00 | 92 | 1013.0 |
| 20260507055503 | 73 | 155 | 7.0 | 16.5 | 0.00 | 0.00 | 0.00 | 92 | 1012.9 |
| 20260507055004 | 73 | 168 | 7.8 | 16.5 | 0.00 | 0.00 | 0.00 | 92 | 1013.0 |
| 20260507054519 | 73 | 153 | 8.7 | 13.9 | 0.00 | 0.00 | 0.00 | 92 | 1012.9 |
| 20260507054004 | 73 | 175 | 7.0 | 13.9 | 0.00 | 0.00 | 0.00 | 91 | 1013.0 |
| 20260507053505 | 73 | 155 | 7.0 | 11.3 | 0.00 | 0.00 | 0.00 | 91 | 1013.3 |
| 20260507053024 | 73 | 198 | 4.3 | 7.8 | 0.00 | 0.00 | 0.00 | 91 | 1013.5 |
| 20260507052512 | 73 | 180 | 3.5 | 10.4 | 0.00 | 0.00 | 0.00 | 91 | 1013.4 |
| 20260507052008 | 73 | 200 | 4.3 | 11.3 | 0.00 | 0.00 | 0.00 | 91 | 1013.5 |
| 20260507051537 | 73 | 160 | 4.3 | 11.3 | 0.00 | 0.00 | 0.00 | 91 | 1013.4 |
| 20260507051009 | 73 | 172 | 7.0 | 11.3 | 0.00 | 0.00 | 0.00 | 91 | 1013.3 |
| 20260507050506 | 73 | 154 | 6.1 | 10.4 | 0.00 | 0.00 | 0.00 | 91 | 1013.3 |
| 20260507050028 | 73 | 182 | 4.3 | 8.7 | 0.00 | 0.00 | 0.00 | 91 | 1013.5 |
| 20260507045510 | 73 | 157 | 3.5 | 8.7 | 0.00 | 0.00 | 0.00 | 91 | 1013.7 |
| 20260507045004 | 73 | 204 | 3.5 | 8.7 | 0.00 | 0.00 | 0.00 | 91 | 1013.8 |
| 20260507044517 | 73 | 166 | 3.5 | 8.7 | 0.00 | 0.00 | 0.00 | 90 | 1013.7 |
| 20260507044006 | 73 | 199 | 3.5 | 8.7 | 0.00 | 0.00 | 0.00 | 90 | 1013.9 |
| 20260507043506 | 73 | 182 | 4.3 | 8.7 | 0.00 | 0.00 | 0.00 | 90 | 1013.9 |
| 20260507043022 | 73 | 200 | 4.3 | 7.0 | 0.00 | 0.00 | 0.00 | 90 | 1014.0 |
| 20260507042506 | 73 | 208 | 2.6 | 8.7 | 0.00 | 0.00 | 0.00 | 90 | 1014.1 |
| 20260507042007 | 73 | 174 | 5.2 | 12.2 | 0.00 | 0.00 | 0.00 | 90 | 1014.0 |
| 20260507041525 | 73 | 182 | 4.3 | 12.2 | 0.00 | 0.00 | 0.00 | 89 | 1014.1 |
| 20260507041008 | 73 | 196 | 4.3 | 12.2 | 0.00 | 0.00 | 0.00 | 89 | 1014.0 |
| 20260507040509 | 73 | 196 | 6.1 | 12.2 | 0.00 | 0.00 | 0.00 | 89 | 1014.0 |
| 20260507040025 | 73 | 166 | 2.6 | 11.3 | 0.00 | 0.00 | 0.00 | 89 | 1014.0 |
| 20260507035510 | 73 | 175 | 7.8 | 11.3 | 0.00 | 0.00 | 0.00 | 88 | 1013.9 |
| 20260507035010 | 73 | 163 | 6.1 | 10.4 | 0.00 | 0.00 | 0.00 | 88 | 1013.8 |
| 20260507034547 | 73 | 163 | 6.1 | 9.6 | 0.00 | 0.00 | 0.00 | 88 | 1013.8 |
| 20260507034007 | 73 | 168 | 3.5 | 10.4 | 0.00 | 0.00 | 0.00 | 87 | 1014.0 |
| 20260507033504 | 73 | 161 | 5.2 | 13.0 | 0.00 | 0.00 | 0.00 | 87 | 1014.0 |
| 20260507033022 | 73 | 157 | 6.1 | 13.0 | 0.00 | 0.00 | 0.00 | 86 | 1014.1 |
| 20260507032506 | 74 | 180 | 4.3 | 8.7 | 0.00 | 0.00 | 0.00 | 85 | 1014.1 |
| 20260507032006 | 74 | 185 | 4.3 | 9.6 | 0.00 | 0.00 | 0.00 | 84 | 1014.2 |
| 20260507031525 | 74 | 182 | 5.2 | 9.6 | 0.00 | 0.00 | 0.00 | 84 | 1014.2 |
| 20260507031007 | 74 | 174 | 4.3 | 7.8 | 0.00 | 0.00 | 0.00 | 83 | 1014.4 |
| 20260507030506 | 74 | 193 | 4.3 | 9.6 | 0.00 | 0.00 | 0.00 | 82 | 1014.6 |
| 20260507030028 | 74 | 176 | 5.2 | 9.6 | 0.00 | 0.00 | 0.00 | 81 | 1014.5 |
| 20260507025510 | 74 | 169 | 4.3 | 7.8 | 0.00 | 0.00 | 0.00 | 80 | 1014.4 |
| 20260507025009 | 74 | 185 | 4.3 | 9.6 | 0.00 | 0.00 | 0.00 | 79 | 1014.3 |
| 20260507024545 | 74 | 169 | 4.3 | 9.6 | 0.00 | 0.00 | 0.00 | 78 | 1014.2 |
| 20260507024009 | 74 | 204 | 2.6 | 8.7 | 0.00 | 0.00 | 0.00 | 77 | 1014.2 |